BVX385 EHAM-EGLL

Flight info

Callsign BVX385
Flight time 0h 47m
Altitude 24000
Route IDRID L980 LOGAN
Aircraft A333/H-SDE3GHIJ2J3J5M1RVWXY/LB2D1

Departure

Time 2026-05-06 00:39
Airport Amsterdam Airport Schiphol (EHAM)

Arrival

Time 2026-05-06 01:26
Airport London Heathrow Airport (EGLL)
Time Latitude Longitude Altitude Speed Heading
2026-05-06 00:10 52.31353 4.76958 1 ft 0 kts 303°
2026-05-06 00:20 52.31343 4.76980 2 ft 3 kts 307°
2026-05-06 00:20 52.31331 4.77005 2 ft 3 kts 307°
2026-05-06 00:20 52.31320 4.77030 3 ft 3 kts 323°
2026-05-06 00:21 52.31303 4.77047 3 ft 3 kts 352°
2026-05-06 00:21 52.31284 4.77046 4 ft 3 kts 10°
2026-05-06 00:21 52.31267 4.77041 3 ft 3 kts 10°
2026-05-06 00:21 52.31249 4.77035 4 ft 3 kts 25°
2026-05-06 00:22 52.31233 4.77021 2 ft 3 kts 31°
2026-05-06 00:22 52.31223 4.77012 3 ft 0 kts 36°
2026-05-06 00:26 52.31226 4.77015 1 ft 1 kts 36°
2026-05-06 00:26 52.31244 4.77036 2 ft 5 kts 36°
2026-05-06 00:26 52.31276 4.77074 1 ft 6 kts 36°
2026-05-06 00:26 52.31320 4.77124 1 ft 10 kts 34°
2026-05-06 00:27 52.31379 4.77188 1 ft 10 kts 33°
2026-05-06 00:27 52.31440 4.77252 1 ft 11 kts 31°
2026-05-06 00:27 52.31483 4.77320 1 ft 8 kts 50°
2026-05-06 00:27 52.31522 4.77380 1 ft 8 kts 41°
2026-05-06 00:28 52.31570 4.77385 1 ft 6 kts 333°
2026-05-06 00:28 52.31580 4.77326 1 ft 7 kts 265°
2026-05-06 00:28 52.31574 4.77195 1 ft 15 kts 266°
2026-05-06 00:28 52.31568 4.77023 1 ft 16 kts 267°
2026-05-06 00:29 52.31561 4.76841 1 ft 16 kts 267°
2026-05-06 00:29 52.31555 4.76655 1 ft 17 kts 266°
2026-05-06 00:29 52.31548 4.76458 1 ft 18 kts 267°
2026-05-06 00:29 52.31541 4.76255 1 ft 18 kts 267°
2026-05-06 00:30 52.31535 4.76044 1 ft 19 kts 266°
2026-05-06 00:30 52.31526 4.75825 1 ft 20 kts 266°
2026-05-06 00:30 52.31518 4.75598 1 ft 20 kts 267°
2026-05-06 00:30 52.31511 4.75363 1 ft 21 kts 267°
2026-05-06 00:31 52.31504 4.75121 1 ft 22 kts 267°
2026-05-06 00:31 52.31494 4.74884 1 ft 20 kts 265°
2026-05-06 00:31 52.31486 4.74675 1 ft 18 kts 267°
2026-05-06 00:31 52.31479 4.74475 1 ft 16 kts 267°
2026-05-06 00:32 52.31504 4.74312 1 ft 15 kts 320°
2026-05-06 00:32 52.31597 4.74294 4 ft 12 kts
2026-05-06 00:32 52.31695 4.74306 4 ft 18 kts
2026-05-06 00:32 52.31833 4.74323 -1 ft 21 kts
2026-05-06 00:33 52.31972 4.74336 -2 ft 17 kts
2026-05-06 00:33 52.32037 4.74241 -2 ft 14 kts 269°
2026-05-06 00:33 52.32035 4.74083 -2 ft 15 kts 270°
2026-05-06 00:33 52.32043 4.73876 2 ft 18 kts 274°
2026-05-06 00:34 52.32051 4.73680 5 ft 17 kts 274°
2026-05-06 00:34 52.32061 4.73484 5 ft 17 kts 279°
2026-05-06 00:34 52.32120 4.73312 4 ft 19 kts 316°
2026-05-06 00:34 52.32219 4.73172 2 ft 19 kts 319°
2026-05-06 00:35 52.32328 4.73020 0 ft 21 kts 319°
2026-05-06 00:35 52.32437 4.72866 0 ft 21 kts 319°
2026-05-06 00:35 52.32548 4.72711 0 ft 21 kts 319°
2026-05-06 00:35 52.32656 4.72556 3 ft 20 kts 318°
2026-05-06 00:36 52.32747 4.72394 3 ft 19 kts 312°
2026-05-06 00:36 52.32849 4.72206 2 ft 24 kts 311°
2026-05-06 00:36 52.32960 4.72000 1 ft 24 kts 311°
2026-05-06 00:36 52.33069 4.71800 1 ft 23 kts 311°
2026-05-06 00:37 52.33137 4.71648 3 ft 14 kts 291°
2026-05-06 00:37 52.33136 4.71491 3 ft 15 kts 261°
2026-05-06 00:37 52.33174 4.71344 3 ft 14 kts 312°
2026-05-06 00:37 52.33245 4.71218 1 ft 16 kts 313°
2026-05-06 00:38 52.33323 4.71075 0 ft 15 kts 310°
2026-05-06 00:38 52.33383 4.70963 0 ft 11 kts 315°
2026-05-06 00:38 52.33453 4.70932 0 ft 11 kts
2026-05-06 00:38 52.33578 4.70948 4 ft 34 kts
2026-05-06 00:39 52.34018 4.70990 0 ft 93 kts
2026-05-06 00:39 52.34844 4.71065 5 ft 143 kts
2026-05-06 00:39 52.35971 4.71152 272 ft 170 kts
2026-05-06 00:39 52.37115 4.71207 1226 ft 157 kts
2026-05-06 00:40 52.38147 4.70658 1892 ft 167 kts 330°
2026-05-06 00:40 52.39129 4.69693 2529 ft 164 kts 348°
2026-05-06 00:40 52.40255 4.69534 3141 ft 164 kts
2026-05-06 00:40 52.41461 4.69735 3500 ft 186 kts 11°
2026-05-06 00:41 52.42839 4.70075 3749 ft 215 kts 11°
2026-05-06 00:41 52.44422 4.70002 4064 ft 243 kts 346°
2026-05-06 00:41 52.45957 4.68635 4466 ft 258 kts 326°
2026-05-06 00:41 52.47358 4.66762 4830 ft 261 kts 323°
2026-05-06 00:42 52.48571 4.64535 5119 ft 266 kts 301°
2026-05-06 00:42 52.49073 4.61600 5410 ft 273 kts 275°
2026-05-06 00:42 52.48937 4.58478 5693 ft 278 kts 256°
2026-05-06 00:42 52.48048 4.55671 5981 ft 281 kts 229°
2026-05-06 00:43 52.46557 4.53556 6436 ft 286 kts 216°
2026-05-06 00:43 52.44919 4.51672 7181 ft 289 kts 214°
2026-05-06 00:43 52.43237 4.49886 8128 ft 286 kts 210°
2026-05-06 00:43 52.41600 4.48040 8995 ft 287 kts 228°
2026-05-06 00:44 52.40572 4.45265 9849 ft 286 kts 247°
2026-05-06 00:44 52.39778 4.42215 10368 ft 299 kts 247°
2026-05-06 00:44 52.38892 4.39009 10679 ft 319 kts 245°
2026-05-06 00:44 52.37892 4.35666 11021 ft 335 kts 244°
2026-05-06 00:45 52.36814 4.32222 11593 ft 343 kts 243°
2026-05-06 00:45 52.35700 4.28745 12312 ft 347 kts 243°
2026-05-06 00:45 52.34566 4.25244 13039 ft 350 kts 243°
2026-05-06 00:45 52.33418 4.21723 13796 ft 352 kts 243°
2026-05-06 00:46 52.32257 4.18175 14416 ft 357 kts 242°
2026-05-06 00:46 52.30950 4.14701 15026 ft 361 kts 235°
2026-05-06 00:46 52.29433 4.11386 15646 ft 365 kts 233°
2026-05-06 00:46 52.27861 4.08093 16267 ft 369 kts 232°
2026-05-06 00:47 52.26271 4.04783 16875 ft 373 kts 232°
2026-05-06 00:47 52.24664 4.01434 17504 ft 377 kts 232°
2026-05-06 00:47 52.23041 3.98053 18095 ft 380 kts 232°
2026-05-06 00:47 52.21403 3.94639 18633 ft 384 kts 232°
2026-05-06 00:48 52.19745 3.91187 19136 ft 388 kts 232°
2026-05-06 00:48 52.18075 3.87714 19723 ft 389 kts 232°
2026-05-06 00:48 52.16411 3.84255 20330 ft 389 kts 232°
2026-05-06 00:48 52.14759 3.80827 20889 ft 391 kts 232°
2026-05-06 00:49 52.13079 3.77346 21434 ft 392 kts 232°
2026-05-06 00:49 52.11388 3.73846 22034 ft 392 kts 232°
2026-05-06 00:49 52.09700 3.70357 22549 ft 395 kts 232°
2026-05-06 00:49 52.07992 3.66832 22999 ft 398 kts 232°
2026-05-06 00:50 52.06275 3.63292 23563 ft 399 kts 232°
2026-05-06 00:50 52.04554 3.59750 23848 ft 400 kts 232°
2026-05-06 00:50 52.02831 3.56209 23909 ft 400 kts 232°
2026-05-06 00:50 52.01107 3.52670 23917 ft 399 kts 232°
2026-05-06 00:51 51.99395 3.49129 23916 ft 398 kts 232°
2026-05-06 00:51 51.97730 3.45543 23918 ft 398 kts 233°
2026-05-06 00:51 51.96088 3.41914 23922 ft 399 kts 234°
2026-05-06 00:51 51.94455 3.38270 23919 ft 400 kts 234°
2026-05-06 00:52 51.92817 3.34610 23920 ft 401 kts 234°
2026-05-06 00:52 51.91172 3.30949 23917 ft 403 kts 234°
2026-05-06 00:52 51.89518 3.27285 23916 ft 402 kts 234°
2026-05-06 00:52 51.87861 3.23628 23917 ft 402 kts 234°
2026-05-06 00:53 51.86306 3.19870 23916 ft 403 kts 241°
2026-05-06 00:53 51.85190 3.15730 23912 ft 402 kts 253°
2026-05-06 00:53 51.84571 3.11332 23912 ft 401 kts 259°
2026-05-06 00:53 51.84152 3.06874 23919 ft 402 kts 262°
2026-05-06 00:54 51.83837 3.02382 23916 ft 403 kts 264°
2026-05-06 00:54 51.83569 2.97875 23916 ft 403 kts 264°
2026-05-06 00:54 51.83312 2.93370 23917 ft 402 kts 264°
2026-05-06 00:54 51.83049 2.88873 23919 ft 402 kts 263°
2026-05-06 00:55 51.82771 2.84361 23924 ft 404 kts 263°
2026-05-06 00:55 51.82481 2.79834 23921 ft 405 kts 263°
2026-05-06 00:55 51.82181 2.75304 23921 ft 405 kts 263°
2026-05-06 00:55 51.81876 2.70781 23925 ft 405 kts 263°
2026-05-06 00:56 51.81567 2.66261 23926 ft 405 kts 263°
2026-05-06 00:56 51.81254 2.61731 23928 ft 406 kts 262°
2026-05-06 00:56 51.80941 2.57224 23924 ft 398 kts 262°
2026-05-06 00:56 51.80638 2.52864 23923 ft 383 kts 262°
2026-05-06 00:57 51.80341 2.48617 23931 ft 382 kts 263°
2026-05-06 00:57 51.80037 2.44310 23933 ft 389 kts 263°
2026-05-06 00:57 51.79733 2.40026 23934 ft 394 kts 263°
2026-05-06 00:57 51.79413 2.35545 23933 ft 409 kts 262°
2026-05-06 00:58 51.79081 2.30904 23942 ft 423 kts 262°
2026-05-06 00:58 51.78736 2.26112 23936 ft 436 kts 263°
2026-05-06 00:58 51.78398 2.21189 23935 ft 445 kts 263°
2026-05-06 00:58 51.78100 2.16213 23934 ft 446 kts 263°
2026-05-06 00:59 51.77809 2.11224 23938 ft 446 kts 263°
2026-05-06 00:59 51.77518 2.06240 23938 ft 446 kts 264°
2026-05-06 00:59 51.77223 2.01253 23938 ft 446 kts 264°
2026-05-06 00:59 51.76925 1.96271 23938 ft 446 kts 263°
2026-05-06 01:00 51.76624 1.91279 23944 ft 446 kts 264°
2026-05-06 01:00 51.76322 1.86304 23947 ft 446 kts 264°
2026-05-06 01:00 51.76017 1.81315 23946 ft 447 kts 264°
2026-05-06 01:00 51.75710 1.76326 23947 ft 447 kts 264°
2026-05-06 01:01 51.75400 1.71338 23951 ft 447 kts 264°
2026-05-06 01:01 51.75088 1.66352 23950 ft 447 kts 264°
2026-05-06 01:01 51.74775 1.61363 23949 ft 447 kts 264°
2026-05-06 01:01 51.74458 1.56372 23949 ft 447 kts 264°
2026-05-06 01:02 51.74140 1.51391 23786 ft 444 kts 264°
2026-05-06 01:02 51.73826 1.46507 23612 ft 432 kts 264°
2026-05-06 01:02 51.73518 1.41750 23398 ft 420 kts 264°
2026-05-06 01:02 51.73214 1.37095 22906 ft 414 kts 264°
2026-05-06 01:03 51.72912 1.32476 22217 ft 414 kts 264°
2026-05-06 01:03 51.72608 1.27863 21579 ft 413 kts 264°
2026-05-06 01:03 51.72306 1.23300 21127 ft 407 kts 264°
2026-05-06 01:03 51.72003 1.18772 20563 ft 405 kts 264°
2026-05-06 01:04 51.71702 1.14273 19981 ft 403 kts 264°
2026-05-06 01:04 51.71400 1.09803 19450 ft 400 kts 264°
2026-05-06 01:04 51.71098 1.05354 18953 ft 396 kts 264°
2026-05-06 01:04 51.70798 1.00949 18410 ft 394 kts 264°
2026-05-06 01:05 51.70497 0.96566 17823 ft 392 kts 264°
2026-05-06 01:05 51.70190 0.92122 17449 ft 383 kts 264°
2026-05-06 01:05 51.69894 0.87865 16836 ft 382 kts 264°
2026-05-06 01:05 51.69599 0.83638 16346 ft 377 kts 264°
2026-05-06 01:06 51.69305 0.79463 15823 ft 373 kts 265°
2026-05-06 01:06 51.69112 0.76720 15448 ft 372 kts 264°
2026-05-06 01:06 51.68820 0.72584 15000 ft 367 kts 265°
2026-05-06 01:06 51.68437 0.67207 14617 ft 355 kts 265°
2026-05-06 01:07 51.68158 0.63323 14395 ft 345 kts 265°
2026-05-06 01:07 51.67976 0.60786 14256 ft 343 kts 265°
2026-05-06 01:07 51.67703 0.56991 14064 ft 339 kts 265°
2026-05-06 01:07 51.67433 0.53275 13895 ft 328 kts 265°
2026-05-06 01:08 51.67170 0.49665 13679 ft 319 kts 265°
2026-05-06 01:08 51.66914 0.46164 13466 ft 310 kts 265°
2026-05-06 01:08 51.66664 0.42763 13276 ft 301 kts 265°
2026-05-06 01:08 51.66420 0.39449 13045 ft 295 kts 265°
2026-05-06 01:09 51.66178 0.36177 12864 ft 294 kts 265°
2026-05-06 01:09 51.65936 0.32904 12687 ft 295 kts 265°
2026-05-06 01:09 51.65694 0.29636 12512 ft 294 kts 265°
2026-05-06 01:09 51.65449 0.26363 12319 ft 295 kts 265°
2026-05-06 01:10 51.65204 0.23094 12138 ft 293 kts 265°
2026-05-06 01:10 51.64958 0.19832 11958 ft 293 kts 265°
2026-05-06 01:10 51.64713 0.16588 11768 ft 292 kts 265°
2026-05-06 01:10 51.64508 0.13348 11592 ft 291 kts 266°
2026-05-06 01:11 51.64326 0.10099 11427 ft 291 kts 267°
2026-05-06 01:11 51.64148 0.06860 11223 ft 290 kts 267°
2026-05-06 01:11 51.63972 0.03662 11051 ft 290 kts 266°
2026-05-06 01:11 51.63793 0.00440 10865 ft 289 kts 267°
2026-05-06 01:12 51.63613 -0.02787 10706 ft 288 kts 267°
2026-05-06 01:12 51.63433 -0.05986 10526 ft 286 kts 268°
2026-05-06 01:12 51.63253 -0.09168 10359 ft 285 kts 267°
2026-05-06 01:12 51.63074 -0.12339 10177 ft 285 kts 267°
2026-05-06 01:13 51.62893 -0.15510 10002 ft 285 kts 267°
2026-05-06 01:13 51.62712 -0.18685 9818 ft 284 kts 267°
2026-05-06 01:13 51.62530 -0.21843 9628 ft 283 kts 267°
2026-05-06 01:13 51.62348 -0.24994 9457 ft 282 kts 266°
2026-05-06 01:14 51.61984 -0.31245 9102 ft 279 kts 267°
2026-05-06 01:14 51.61802 -0.34349 8899 ft 279 kts 266°
2026-05-06 01:14 51.61620 -0.37454 8723 ft 278 kts 267°
2026-05-06 01:15 51.61438 -0.40544 8548 ft 277 kts 266°
2026-05-06 01:15 51.61254 -0.43635 8376 ft 277 kts 266°
2026-05-06 01:15 51.61071 -0.46708 8239 ft 275 kts 267°
2026-05-06 01:15 51.60887 -0.49763 8033 ft 274 kts 266°
2026-05-06 01:16 51.60704 -0.52809 7857 ft 272 kts 267°
2026-05-06 01:16 51.60521 -0.55834 7688 ft 271 kts 267°
2026-05-06 01:16 51.60338 -0.58853 7525 ft 271 kts 266°
2026-05-06 01:16 51.60155 -0.61861 7344 ft 269 kts 266°
2026-05-06 01:17 51.59971 -0.64849 7184 ft 268 kts 266°
2026-05-06 01:17 51.59788 -0.67828 7029 ft 268 kts 266°
2026-05-06 01:17 51.59603 -0.70820 6905 ft 268 kts 266°
2026-05-06 01:17 51.59419 -0.73783 6755 ft 266 kts 266°
2026-05-06 01:18 51.59238 -0.76707 6610 ft 265 kts 266°
2026-05-06 01:18 51.59055 -0.79642 6463 ft 263 kts 266°
2026-05-06 01:18 51.58875 -0.82563 6297 ft 263 kts 266°
2026-05-06 01:18 51.58678 -0.85488 6093 ft 264 kts 262°
2026-05-06 01:19 51.57943 -0.88198 5685 ft 270 kts 233°
2026-05-06 01:19 51.56497 -0.90033 5480 ft 266 kts 205°
2026-05-06 01:19 51.54736 -0.90781 5360 ft 259 kts 190°
2026-05-06 01:19 51.52981 -0.91167 5205 ft 251 kts 188°
2026-05-06 01:20 51.51250 -0.91406 5004 ft 247 kts 182°
2026-05-06 01:20 51.49545 -0.91451 4786 ft 244 kts 177°
2026-05-06 01:20 51.47951 -0.90745 4580 ft 236 kts 145°
2026-05-06 01:20 51.46824 -0.88935 4402 ft 227 kts 121°
2026-05-06 01:21 51.46303 -0.86638 4274 ft 217 kts 90°
2026-05-06 01:21 51.46317 -0.84228 4140 ft 216 kts 84°
2026-05-06 01:21 51.46357 -0.81845 4024 ft 216 kts 86°
2026-05-06 01:21 51.46376 -0.79455 3930 ft 206 kts 86°
2026-05-06 01:22 51.46381 -0.77231 3763 ft 199 kts 86°
2026-05-06 01:22 51.46382 -0.75037 3503 ft 195 kts 86°
2026-05-06 01:22 51.46390 -0.72881 3214 ft 192 kts 86°
2026-05-06 01:22 51.46399 -0.70756 2932 ft 189 kts 87°
2026-05-06 01:23 51.46406 -0.68664 2666 ft 186 kts 87°
2026-05-06 01:23 51.46412 -0.66638 2416 ft 177 kts 87°
2026-05-06 01:23 51.46418 -0.64727 2172 ft 165 kts 86°
2026-05-06 01:23 51.46424 -0.62946 1951 ft 154 kts 85°
2026-05-06 01:24 51.46430 -0.61280 1758 ft 144 kts 85°
2026-05-06 01:24 51.46435 -0.59725 1544 ft 137 kts 85°
2026-05-06 01:24 51.46442 -0.58184 1376 ft 140 kts 85°
2026-05-06 01:24 51.46449 -0.56615 1168 ft 141 kts 85°
2026-05-06 01:25 51.46454 -0.55037 975 ft 141 kts 86°
2026-05-06 01:25 51.46458 -0.53469 774 ft 140 kts 86°
2026-05-06 01:25 51.46455 -0.51904 611 ft 141 kts 86°
2026-05-06 01:25 51.46464 -0.50334 388 ft 140 kts 85°
2026-05-06 01:26 51.46474 -0.48780 222 ft 139 kts 86°
2026-05-06 01:26 51.46486 -0.47267 96 ft 127 kts 89°
2026-05-06 01:26 51.46487 -0.46225 95 ft 52 kts 91°
2026-05-06 01:26 51.46487 -0.45753 93 ft 38 kts 90°
2026-05-06 01:27 51.46495 -0.45415 90 ft 23 kts 76°
2026-05-06 01:27 51.46542 -0.45203 94 ft 16 kts 70°
2026-05-06 01:27 51.46598 -0.45090 95 ft 12 kts 23°
2026-05-06 01:27 51.46655 -0.45101 93 ft 5 kts 306°
2026-05-06 01:28 51.46663 -0.45171 94 ft 10 kts 273°
2026-05-06 01:28 51.46664 -0.45281 91 ft 9 kts 270°
2026-05-06 01:28 51.46664 -0.45381 90 ft 10 kts 270°
2026-05-06 01:28 51.46663 -0.45498 90 ft 11 kts 269°
2026-05-06 01:29 51.46662 -0.45631 91 ft 13 kts 269°
2026-05-06 01:29 51.46662 -0.45779 90 ft 14 kts 269°
2026-05-06 01:29 51.46661 -0.45937 90 ft 15 kts 269°
2026-05-06 01:29 51.46661 -0.46104 92 ft 15 kts 270°
2026-05-06 01:30 51.46660 -0.46267 90 ft 14 kts 269°
2026-05-06 01:30 51.46679 -0.46401 93 ft 12 kts 317°
2026-05-06 01:30 51.46756 -0.46423 91 ft 11 kts 353°
2026-05-06 01:30 51.46820 -0.46471 95 ft 10 kts 324°
2026-05-06 01:31 51.46876 -0.46533 94 ft 10 kts 326°
2026-05-06 01:31 51.46933 -0.46595 95 ft 10 kts 326°
2026-05-06 01:31 51.46990 -0.46658 92 ft 10 kts 325°
2026-05-06 01:31 51.47050 -0.46718 93 ft 10 kts 338°
2026-05-06 01:32 51.47118 -0.46725 90 ft 10 kts 359°
2026-05-06 01:32 51.47185 -0.46725 90 ft 10 kts
2026-05-06 01:32 51.47231 -0.46672 94 ft 8 kts 73°
2026-05-06 01:32 51.47238 -0.46580 93 ft 8 kts 86°
2026-05-06 01:33 51.47239 -0.46485 90 ft 9 kts 89°
2026-05-06 01:33 51.47219 -0.46401 92 ft 8 kts 135°
2026-05-06 01:33 51.47169 -0.46346 94 ft 9 kts 146°
2026-05-06 01:33 51.47124 -0.46358 95 ft 6 kts 223°
2026-05-06 01:34 51.47101 -0.46405 94 ft 4 kts 235°
2026-05-06 01:34 51.47093 -0.46423 94 ft 0 kts 235°
2026-05-06 01:34 51.47093 -0.46424 94 ft 0 kts 236°